DECAYED

STARLINK-1479, 45740 (Decayed)

Orbit data source: Space-Track

STARLINK-1479, 45740 was a payload satellite owned by SpaceX/Seattle (US) in LEO that was launched on Sat, 13 Jun 2020 UTC via an FALCON 9 launch vehicle from the Air Force Eastern Test Range (AFETR). Payload-class satellites include a variety of spacecraft equipped with specific instruments for various scientific and technological missions. These include communications satellites like Starlink; space stations such as the ISS; scientific satellites like the Hubble; Earth observation satellites from companies like Planet Labs, Umbra, and HawkEye 360; GPS; miniature CubeSats for education and research; and military/defense satellites.

Not visible in the next 10 days
Identifier
45740, 2020-038L
Orbit
Decayed
Country
Flag of USUS
Related business
Manufacturer
SpaceX/Seattle
Mission
Decayed Commercial Communications
Bus & Motor
STARLINK, Unknown motor
Mass
260 kg wet, ~248 kg dry
Launch date (UTC)
2020-06-13 (6 years ago)
Launch vehicle
FALCON 9
Launch site
Air Force Eastern Test Range (AFETR)
Object type
Payload
Rocket body
Debris
Shape & HBR
Box + 1 Pan, 10.1 m
Radar Cross Section
13.562 m², Large (>1 m²)

Expand to show TLE details & history
Last TLE update: 2 years ago

TLE from 2 years ago
0 STARLINK-1479
1 45740U 20038L   25022.13780856  .12926664  12528-4  45319-3 0  9995
2 45740  53.0367 248.8761 0005273 304.1327 197.0376 16.44203087255751
Epoch: 2025-01-22T03:18Z
TLE epoch observation values (Epoch: 2025-01-22T03:18:26.659Z)
Latitude
30.17659°
Longitude
-128.25821°
Altitude
159.656 km
Speed
7.813 km/s
True Right ascension
02h 52m 20s
True Declination
30° 00' 49"
Sunlit
Object was in full shadow at epoch
Visualization orbit readout
Latitude
Unknown
Longitude
Unknown
Altitude
Unknown
Speed
Unknown
Apparent Right ascension
Unknown
Apparent Declination
Unknown
Sunlit
N/A
Visualization observer readout
Local Sidereal Time
06:44:13
Azimuth
Unknown
Elevation
Unknown
Doppler factor
Unknown
Orbital elements
Apogee altitude
158.38 km
Perigee altitude
151.49 km
Semi-major axis
6,533.072 km
Eccentricity
0.00053
Inclination
53.0367°
RAAN
248.8761°
Arg. of periapsis
304.1327°
True anomaly
197.01991°
Mean anomaly
197.0376°
Eccentric anomaly
197.02875°
Mean motion
4.11024 °/min
Orbital period
87.59 mins
BSTAR
0.00045319
Loading maneuver chart data...
Computing Atmospheric mass density...

Documentation

Showing up to 5 results
|